Other Public Products
Issued by NWS Grand Forks, ND

Home | Current Version | Previous Version | Text Only | Print | Product List | Glossary Off
Versions: 1 2 3 4 5 6 7 8 9 10 11 12 13 14 15 16 17 18 19 20 21 22 23 24 25 26 27 28 29 30 31 32 33 34 35 36 37 38 39 40 41 42 43 44 45 46 47 48 49 50

000
FPUS83 KFGF 301010
OPUFGF
PRAIRIE TO PINES WEATHER ROUNDUP
NATIONAL WEATHER SERVICE EASTERN NORTH DAKOTA/GRAND FORKS ND
500 AM CDT MON MAY 30 2016

 **SATELLITE DATA USED TO AUGMENT SKY COVER AT AUTOMATED STATIONS**
 *****  WEATHER ACROSS EASTERN NORTH DAKOTA  *****

CITY           SKY/WX    TMP DP  RH WIND       PRES   REMARKS
GRAND FORKS    PTCLDY    48  44  86 S6        29.90F
GRAND FORKS AF CLEAR     51  45  81 SW6       29.91S
GRAND CITY NWS   N/A     50 N/A N/A SW3         N/A
BUXTON           N/A     58  49  71 S3          N/A
DEVILS LAKE    PTCLDY    57  44  62 S5        29.92S
FARGO          CLEAR     55  47  74 S5        29.93S
WAHPETON ARPT  SUNNY     50  43  76 E3        29.96S
$$

 *****  WEATHER ACROSS CENTRAL AND WESTERN NORTH DAKOTA  *****

CITY           SKY/WX    TMP DP  RH WIND       PRES   REMARKS
JAMESTOWN      CLEAR     51  48  89 CALM      29.93S
BISMARCK       CLEAR     52  51  97 E5        29.92S
MINOT          CLEAR     52  47  83 S3        29.89S
MINOT AFB      CLEAR     50  44  79 NW3       29.88F
GARRISON         N/A     49  46  90 CALM      29.90F
WILLISTON      PTCLDY    46  41  82 CALM      29.90S
DICKINSON      CLEAR     48  44  86 S8        29.90S
HETTINGER      CLEAR     48  44  86 CALM      29.93F
$$

 *****  OTHER OBSERVATIONS NORTHEAST NORTH DAKOTA  *****

CITY           SKY/WX    TMP DP  RH WIND       PRES   REMARKS
WALHALLA       FAIR      48  45  87 CALM      29.90S
LANGDON        FAIR      48  46  93 S5        29.92S
CAVALIER       FAIR      50  48  93 CALM      29.90S
GRAFTON        FAIR      54  52  94 SW6       29.92S
CANDO          NOT AVBL
FORT TOTTEN      N/A     55  41  60 E2        29.95S
ROLLA          FAIR      50  41  71 SW7       29.92S
RUGBY          FAIR      54  45  71 S5        29.90S
 ***** THE ABOVE OBSERVATIONS ARE NON NWS ARE NOT QUALITY
        CONTROLLED AND MAY MIS-REPORT RAIN FOR SNOW...
$$

 *****  OTHER OBSERVATIONS SOUTHEAST NORTH DAKOTA *****

CITY           SKY/WX    TMP DP  RH WIND       PRES   REMARKS
COOPERSTOWN    NOT AVBL
VALLEY CITY    FAIR      50  50 100 SW7       29.96R
OAKES            N/A    N/A N/A N/A MISG        N/A
GWINNER        FAIR      55  52  88 SW9       29.96R
SHEYENNE NWR     N/A     48  47  95 CALM      29.95
BUFFALO          N/A     58  42  56 CALM        N/A
WYNDMERE       NOT AVBL
 ***** THE ABOVE OBSERVATIONS ARE NON NWS ARE NOT QUALITY
       CONTROLLED AND MAY MIS-REPORT RAIN FOR SNOW...
$$

  *****  WEATHER ACROSS NORTHERN MINNESOTA  *****

CITY           SKY/WX    TMP DP  RH WIND       PRES   REMARKS
FLAG ISLAND    CLEAR     54  52  94 NW1       29.91R
WARROAD        CLEAR     48  45  87 CALM      29.92S FOG
ROSEAU         CLEAR     50  45  81 CALM      29.92S
HALLOCK        CLEAR     50  48  93 SE3       29.89S FOG
THF RVR FALLS  CLEAR     54  46  76 S7        29.94S
HALSTAD        NOT AVBL
FOSSTON        CLEAR     50  46  87 S6        29.95S
BAUDETTE       CLEAR     45  44  97 S5        29.92S
WASKISH        CLEAR     48  48 100 CALM      29.93S FOG
CROOKSTON      CLEAR     50  46  87 SE6       29.93S
$$
  *****  WEATHER ACROSS CENTRAL AND WEST MINNESOTA  *****

CITY           SKY/WX    TMP DP  RH WIND       PRES   REMARKS
BEMIDJI        FOG       44  44 100 CALM      29.96R VSB 3/4
PARK RAPIDS    MOCLDY    51  46  83 CALM      29.97R
WADENA         CLOUDY    50  48  93 CALM      29.99R
DETROIT LAKES  CLOUDY    61  50  67 SE7       29.98R
MOORHEAD       CLEAR     55  48  76 SE6       29.95R
FERGUS FALLS   CLEAR     57  48  72 SE3       29.94R
ELBOW LAKE     FAIR      57  50  76 SE5       29.98R
MORRIS MN      CLOUDY    54  48  82 SE6       29.97S
STAPLES        PTCLDY    48  48 100 CALM      29.98S
WHEATON        CLEAR     57  48  72 S5        29.98S
$$
  *****  WEATHER ELSEWHERE ACROSS MINNESOTA  *****

CITY           SKY/WX    TMP DP  RH WIND       PRES   REMARKS
DULUTH         CLEAR     51  48  89 W6        29.95S
INTRNTL FALLS  CLEAR     45  44  97 CALM      29.91S
ELY            CLEAR     50  48  93 SW5       29.92S
CLOQUET        CLEAR     54  48  82 W5        29.96S
BRAINERD       CLEAR     49  48  97 S3        29.98R
HIBBING        FOG       40  39  97 CALM      29.95S VSB 3/4
ALEXANDRIA     CLEAR     53  48  83 CALM      29.99S
SAINT CLOUD    CLEAR     50  50 100 CALM      29.99R
MINNEAPOLIS    PTCLDY    61  57  87 CALM      30.00R
$$

  *****  WEATHER ACROSS SOUTH DAKOTA  *****

CITY           SKY/WX    TMP DP  RH WIND       PRES   REMARKS
SIOUX FALLS    CLOUDY    63  55  75 E7        30.01F
BROOKINGS      LGT RAIN  60  54  80 S8        30.02S
WATERTOWN      CLOUDY    55  50  83 S7        30.00R
HURON          RAIN      61  56  83 SW26G35   29.99S
SISSETON         N/A     51  45  79 S5        29.95S
ABERDEEN       CLEAR     53  50  89 SE6       29.96S
MITCHELL       CLOUDY    62  57  83 E3        29.99F
PIERRE         CLEAR     60  55  83 SE12      29.93R
MOBRIDGE       CLEAR     57  51  80 SE8       29.90F
RAPID CITY     CLOUDY    51  49  92 NW5       29.91F
$$

  *****  SOME WEATHER IN NEARBY STATES *****

CITY           SKY/WX    TMP DP  RH WIND       PRES   REMARKS
GLASGOW MT     CLOUDY    54  46  74 VRB7      29.90R
GREAT FALLS MT CLOUDY    48  41  76 SW13      29.97S
CHEYENNE WY    CLEAR     46  37  71 W7        30.09S
SCOTTSBLUFF NE CLOUDY    52  48  86 SE7       30.00F
OMAHA NE       PTCLDY    64  59  83 SE3       29.97F
DES MOINES IA  CLOUDY    66  58  75 W5        29.99S
DAVENPORT IA   CLOUDY    62  57  83 CALM      30.02S
CHICAGO IL     PTCLDY    64  57  78 W5        30.00S
EAU CLAIRE WI  CLEAR     54  53  97 CALM      29.98S
LA CROSSE WI   CLEAR     58  57  97 S3        30.00R
$$

  *****  SOME NATIONAL WEATHER *****

CITY           SKY/WX    TMP DP  RH WIND       PRES   REMARKS
LA GUARDIA NY  CLOUDY    70  70 100 SE6       29.98S
RALEIGH NC     FOG       66  65  96 NE3       30.00S VSB 1/4
ATLANTA GA     PTCLDY    68  62  81 CALM      30.03S
NEW ORLEANS LA PTCLDY    74  71  91 CALM      29.99F
OKLAHOMA CITY  CLOUDY    66  64  93 SE12      30.03F
ALBUQUERQUE NM MOCLDY    62  39  42 N6        30.09S
SALT LAKE CITY CLOUDY    59  48  67 SE14G26   30.10F
LOS ANGELES CA PTCLDY    58  54  86 W5        29.99F
BOISE ID       CLEAR     56  37  49 NW9       30.07R
SEATTLE WA     CLEAR     51  42  71 N12       30.28R
$$

*** WEATHER ACROSS MANITOBA...SASKATCHEWAN AND ONTARIO ***
                ***ONTARIO***

CITY           SKY/WX    TMP DP  RH WIND       PRES   REMARKS
GERALDTON      CLOUDY    50  48  93 W8        29.76R
THUNDER BAY    PTCLDY    54  52  94 W7        29.84R
SIOUX LOOKOUT  CLOUDY    50  50 100 NW8       29.85S
TORONTO        PTCLDY    63  57  82 W7        29.91R
BIG TROUT LK   LGT RAIN  36  32  87 N7        29.93R
PICKLE LAKE    NOT AVBL
DRYDEN         CLOUDY    52  50  93 W10       29.88R
KENORA         FOG       50  50 100 NW7       29.92R VSB 1/4
$$
                *** MANITOBA***

CITY           SKY/WX    TMP DP  RH WIND       PRES   REMARKS
BRANDON        PTCLDY    45  43  93 CALM      29.89S
DAUPHIN        CLOUDY    48  48 100 W6        29.89S FOG
ISLAND LAKE    LGT RAIN  45  45 100 NW2       29.97R
PILOT MOUND      N/A     48  45  87 S3          N/A
THE PAS        CLOUDY    50  48  93 N5        29.92S
THOMPSON       CLOUDY    43  41  93 E9        30.02R
WINNIPEG       PTCLDY    50  48  93 E6        29.91S
LYNN LAKE      LGT RAIN  43  41  93 E8        30.03S FOG
CHURCHILL      CLOUDY    25  25 100 NE8       30.23R FOG     WCI  16
GILLAM         CLOUDY    30  28  93 NE8G17    30.10R FOG     WCI  23
$$
                ***SASKATCHEWAN***

CITY           SKY/WX    TMP DP  RH WIND       PRES   REMARKS
ESTEVAN        NOT AVBL
KINDERSLEY     PTCLDY    48  46  93 NE14      29.83S
LLOYDMINSTER   LGT RAIN  48  48 100 NE10      29.91F
PRINCE ALBERT  PTCLDY    37  37 100 NE3       29.96R
REGINA         NOT AVBL
YORKTON        FOG       48  48 100 N6        29.89S VSC1F1C2F2C3F3C4F4C5F5C6F6C7F7C8F8C9F9CaFaCbFbCcFcCdFdCe!



USA.gov is the U.S. government's official web portal to all federal, state and local government web resources and services.